DW9425 Weather Reports


time (UTC)temp
C
wind
direction
speed
KPH
gust
KPH
rain 1hr
cm
rain 24hr
cm
rain mn
cm
humidity
%
barometer
mb
20260504214700 21 243 12.9 33.8 0.00 0.00 0.00 16 1012.9
20260504213059 21 267 12.9 27.4 0.00 0.00 0.00 15 1012.9
20260504211557 21 286 22.5 37.0 0.00 0.00 0.00 15 1013.1
20260504210107 21 314 17.7 41.8 0.00 0.00 0.00 14 1013.5
20260504204652 21 282 19.3 33.8 0.00 0.00 0.00 16 1013.8
20260504203104 21 269 17.7 32.2 0.00 0.00 0.00 15 1014.0
20260504201548 21 236 20.9 40.2 0.00 0.00 0.00 16 1014.1
20260504200047 21 217 14.5 30.6 0.00 0.00 0.00 16 1014.1
20260504194544 20 222 16.1 37.0 0.00 0.00 0.00 17 1014.2
20260504193042 20 247 19.3 38.6 0.00 0.00 0.00 17 1014.5
20260504191543 20 225 22.5 35.4 0.00 0.00 0.00 18 1014.5
20260504190100 20 243 17.7 40.2 0.00 0.00 0.00 19 1014.5
20260504184537 20 266 22.5 40.2 0.00 0.00 0.00 20 1014.7
20260504183035 19 295 14.5 41.8 0.00 0.00 0.00 22 1014.8
20260504181534 19 256 24.1 37.0 0.00 0.00 0.00 22 1015.0
20260504180032 19 256 20.9 32.2 0.00 0.00 0.00 21 1015.1
20260504174528 19 278 17.7 30.6 0.00 0.00 0.00 22 1015.3
20260504173026 18 271 16.1 29.0 0.00 0.00 0.00 23 1015.3
20260504171524 18 217 11.3 19.3 0.00 0.00 0.00 28 1015.3
20260504081558 11 234 1.6 4.8 0.00 0.00 0.00 58 1015.7
20260504044534 12 257 1.6 11.3 0.00 0.00 0.00 49 1016.3
20260504043033 13 236 8.0 14.5 0.00 0.00 0.00 49 1016.1
20260504041532 13 229 11.3 16.1 0.00 0.00 0.00 49 1016.0
20260504040032 13 244 6.4 12.9 0.00 0.00 0.00 49 1016.0
20260504034533 13 223 6.4 16.1 0.00 0.00 0.00 47 1015.8
20260504033035 13 219 11.3 22.5 0.00 0.00 0.00 45 1015.9
20260504031531 13 229 9.7 14.5 0.00 0.00 0.00 34 1015.8
20260504030030 15 242 1.6 6.4 0.00 0.00 0.00 28 1015.5
20260504024529 15 242 6.4 12.9 0.00 0.00 0.00 28 1015.4
20260504023029 15 233 6.4 16.1 0.00 0.00 0.00 26 1015.3
20260504021530 16 236 12.9 19.3 0.00 0.00 0.00 25 1015.2
20260504020030 16 190 6.4 14.5 0.00 0.00 0.00 24 1015.1
20260504014541 17 223 11.3 17.7 0.00 0.00 0.00 23 1015.0
20260504013027 18 233 14.5 25.7 0.00 0.00 0.00 22 1014.9
20260504011526 18 230 11.3 25.7 0.00 0.00 0.00 22 1014.9
20260504010025 18 231 12.9 29.0 0.00 0.00 0.00 22 1015.0
20260504004523 19 221 9.7 20.9 0.00 0.00 0.00 21 1015.1
20260504003022 20 235 11.3 20.9 0.00 0.00 0.00 21 1015.1
20260504001522 20 229 11.3 25.7 0.00 0.00 0.00 21 1015.2
20260504000037 20 250 11.3 24.1 0.00 0.00 0.00 20 1015.2
20260503234517 21 227 12.9 20.9 0.00 0.00 0.00 19 1015.4
20260503233020 21 128 14.5 24.1 0.00 0.00 0.00 19 1015.5
20260503231514 21 199 9.7 25.7 0.00 0.00 0.00 18 1015.7
20260503230013 22 237 6.4 17.7 0.00 0.00 0.00 19 1015.9
20260503224510 22 247 6.4 22.5 0.00 0.00 0.00 18 1016.2
20260503223008 22 236 4.8 27.4 0.00 0.00 0.00 19 1016.3
20260503221506 22 223 11.3 27.4 0.00 0.00 0.00 17 1016.4
20260503220006 22 254 17.7 27.4 0.00 0.00 0.00 17 1016.5